Location: ČR
(50.0000°N, 15.0000°E)
Time: 06:10:24
(UTC+01:00)

Transit 2A Rocket - Visible Passes

Search period start: 10 February 2026 00:00
Search period end: 20 February 2026 00:00
Orbit: 581 x 902 km, 66.7° (Epoch: 9 February)

Date Brightness Start Highest point End Pass type
(mag) Time Alt. Az. Time Alt. Az. Time Alt. Az.
10 Feb 6.0 19:04:30 10° WSW 19:10:24 52° NW 19:15:51 12° NNE visible
10 Feb 7.3 20:49:45 10° WNW 20:54:09 21° NNW 20:55:33 19° N visible
11 Feb 5.5 18:18:35 10° SW 18:24:37 76° NW 18:30:38 10° NE visible
11 Feb 7.1 20:03:01 10° W 20:07:59 26° NNW 20:11:27 16° NNE visible
11 Feb 7.8 21:49:03 10° NW 21:51:09 14° NNW 21:51:09 14° NNW visible
12 Feb 6.7 19:16:29 10° W 19:21:55 34° NW 19:27:16 10° NNE visible
12 Feb 7.5 21:02:24 10° NW 21:06:08 17° NNW 21:06:58 16° N visible
13 Feb 6.3 18:30:10 10° WSW 18:35:59 47° NW 18:41:43 10° NNE visible
13 Feb 7.4 20:15:36 10° WNW 20:19:51 19° NNW 20:22:43 14° NNE visible
13 Feb 7.9 22:01:09 10° NNW 22:02:25 13° NNW 22:02:25 13° NNW visible
14 Feb 5.7 17:44:08 10° SW 17:50:09 68° NW 17:56:07 10° NE visible
14 Feb 7.2 19:28:50 10° W 19:33:38 24° NNW 19:38:19 10° NNE visible
14 Feb 7.6 21:14:50 10° NW 21:18:09 15° N 21:18:09 15° N visible
15 Feb 6.9 18:42:13 10° W 18:47:32 31° NW 18:52:44 10° NNE visible
15 Feb 7.4 20:28:14 10° NW 20:31:49 16° N 20:33:50 14° NNE visible
15 Feb 8.0 22:12:45 10° NNW 22:13:32 12° NNW 22:13:32 12° NNW visible
16 Feb 6.4 17:55:50 10° WSW 18:01:32 42° NW 18:07:10 10° NNE visible
16 Feb 7.4 19:41:27 10° WNW 19:45:30 18° NNW 19:49:28 10° NNE visible
16 Feb 7.6 21:26:49 10° NNW 21:29:12 15° N 21:29:12 15° N visible
17 Feb 7.2 18:54:39 10° WNW 18:59:16 22° NNW 19:03:46 10° NNE visible
17 Feb 7.4 20:40:36 10° NW 20:43:52 15° N 20:44:50 14° N visible
17 Feb 8.0 22:24:01 10° NNW 22:24:32 12° NNW 22:24:32 12° NNW visible
18 Feb 7.0 18:07:59 10° W 18:13:08 28° NNW 18:18:11 10° NNE visible
18 Feb 7.4 19:54:02 10° NW 19:57:30 16° N 20:00:28 11° NNE visible
18 Feb 7.6 21:38:18 10° NNW 21:40:09 15° N 21:40:09 15° N visible
19 Feb 7.4 19:07:18 10° WNW 19:11:10 17° NNW 19:14:56 10° NNE visible
19 Feb 7.4 20:52:26 10° NNW 20:55:46 16° N 20:55:46 16° N visible
19 Feb 8.0 22:35:07 10° NNW 22:35:28 11° NNW 22:35:28 11° NNW visible
